Location: Unnamed
(52.8822°N, 118.0859°W)
Time: 23:27:24
(UTC-06:00)

ISS - Visible Passes

Search period start: 27 July 2021 00:00
Search period end: 06 August 2021 00:00
Orbit: 419 x 421 km, 51.6° (Epoch: 28 July)

Date Brightness Start Highest point End Pass type
(mag) Time Alt. Az. Time Alt. Az. Time Alt. Az.
27 Jul -2.7 22:53:16 10° W 22:56:20 32° SSW 22:59:08 12° SE visible
28 Jul -1.4 23:43:44 10° WSW 23:45:20 13° SW 23:46:25 11° SSW visible
29 Jul -1.7 22:55:55 10° W 22:58:18 18° SW 23:00:40 10° S visible
